User: anonymous   Login
Location: Unspecified
(54.2679°N, 0.0000°E)
Time: 07:31:50
(UTC+00:00)
Language:

FUSE - Orbit

View from above orbital plane
View from above orbital plane
View from above satellite
View from above satellite

Ground track
Ground track

The orbit is defined by the following mean orbital elements,

1 25791U          26088.19328663 +.00000000 +00000-0 +11068-3 0 00008
2 25791  24.9832 139.2221 0010000 324.7951  35.1896 14.44437348    00
Epoch (UTC): 29 March 2026 04:38:19
Eccentricity: 0.0010000
inclination: 24.9832°
perigee height: 737 km
apogee height: 751 km
right ascension of ascending node: 139.2221°
argument of perigee: 324.7951°
revolutions per day: 14.44437348
mean anomaly at epoch: 35.1896°

The dashed part of the orbit path shows where the satellite is in the earth's shadow,  

DLR